When you browse on this site, cookies collect data to enhance your experience and personalize the content and advertising you see.
Visit our Privacy Policy to learn more. By continuing to use the site, you agree to this use of cookies and data.
  • In Austria
  • List of Countries
  • For 7 days
  • Water Temperature
  • Satellite Maps
  • Weather Map
  • News
  • Weather Widgets
  • user-avatar
    Login

    Hourly Weather Kipungo

    Today, 16 February, Saturday

    Time Temperature Precipitation Wind Pressure Humidity
    00:00 +21°C° 0 mm 1 mps 654 mmHg 55%
    01:00 +20°C° 0 mm 1 mps 654 mmHg 56%
    02:00 +20°C° 0 mm 1 mps 654 mmHg 59%
    03:00 +19°C° 0 mm 1 mps 654 mmHg 62%
    04:00 +17°C° 0 mm 0 mps 653 mmHg 65%
    05:00 +17°C° 0 mm 0 mps 654 mmHg 65%
    06:00 +18°C° 0 mm 0 mps 654 mmHg 65%
    07:00 +19°C° 0 mm 0 mps 655 mmHg 64%
    08:00 +23°C° 0 mm 0 mps 656 mmHg 56%
    09:00 +26°C° 0 mm 0 mps 657 mmHg 47%
    10:00 +29°C° 0 mm 0 mps 658 mmHg 38%
    11:00 +31°C° 0 mm 0 mps 657 mmHg 35%
    12:00 +33°C° 0 mm 0 mps 657 mmHg 31%
    13:00 +35°C° 0 mm 0 mps 657 mmHg 28%
    14:00 +34°C° 0 mm 0 mps 656 mmHg 28%
    15:00 +33°C° 0 mm 0 mps 656 mmHg 28%
    16:00 +32°C° 0 mm 0 mps 655 mmHg 28%
    17:00 +32°C° 0 mm 1 mps 655 mmHg 34%
    18:00 +29°C° 0 mm 1 mps 654 mmHg 40%
    19:00 +27°C° 0 mm 1 mps 654 mmHg 46%
    20:00 +26°C° 0 mm 1 mps 654 mmHg 47%
    21:00 +25°C° 0 mm 1 mps 655 mmHg 47%
    22:00 +24°C° 0 mm 2 mps 655 mmHg 48%
    23:00 +23°C° 0 mm 1 mps 655 mmHg 50%

    Tomorrow, 17 February, Sunday

    Time Temperature Precipitation Wind Pressure Humidity
    00:00 +22°C° 0 mm 1 mps 654 mmHg 52%
    01:00 +21°C° 0 mm 1 mps 654 mmHg 54%
    02:00 +20°C° 0 mm 1 mps 654 mmHg 55%
    03:00 +20°C° 0 mm 1 mps 653 mmHg 56%
    04:00 +19°C° 0 mm 1 mps 653 mmHg 57%
    05:00 +20°C° 0 mm 1 mps 654 mmHg 58%
    06:00 +20°C° 0 mm 1 mps 654 mmHg 59%
    07:00 +21°C° 0 mm 1 mps 654 mmHg 60%
    08:00 +24°C° 0 mm 1 mps 655 mmHg 50%
    09:00 +27°C° 0 mm 2 mps 656 mmHg 41%
    10:00 +30°C° 0 mm 2 mps 657 mmHg 31%
    11:00 +31°C° 0 mm 2 mps 656 mmHg 29%
    12:00 +32°C° 0 mm 2 mps 656 mmHg 27%
    13:00 +34°C° 0 mm 2 mps 656 mmHg 25%
    14:00 +34°C° 0 mm 2 mps 655 mmHg 25%
    15:00 +34°C° 0 mm 2 mps 654 mmHg 25%
    16:00 +33°C° 0 mm 1 mps 654 mmHg 25%
    17:00 +31°C° 0 mm 1 mps 653 mmHg 30%
    18:00 +28°C° 0 mm 1 mps 653 mmHg 35%
    19:00 +26°C° 0 mm 1 mps 653 mmHg 40%
    20:00 +25°C° 0 mm 1 mps 653 mmHg 43%
    21:00 +24°C° 0 mm 1 mps 653 mmHg 45%
    22:00 +23°C° 0 mm 2 mps 654 mmHg 48%
    23:00 +22°C° 0 mm 1 mps 654 mmHg 50%

    Day after tomorrow, 18 February, Monday

    Time Temperature Precipitation Wind Pressure Humidity
    00:00 +21°C° 0 mm 1 mps 653 mmHg 52%
    01:00 +21°C° 0 mm 1 mps 653 mmHg 55%
    02:00 +20°C° 0 mm 1 mps 653 mmHg 57%
    03:00 +20°C° 0 mm 1 mps 653 mmHg 59%
    04:00 +19°C° 0 mm 1 mps 653 mmHg 61%
    05:00 +20°C° 0 mm 1 mps 653 mmHg 62%
    06:00 +20°C° 0 mm 1 mps 653 mmHg 63%
    07:00 +21°C° 0 mm 1 mps 654 mmHg 64%
    08:00 +24°C° 0 mm 1 mps 655 mmHg 52%
    09:00 +27°C° 0 mm 2 mps 655 mmHg 41%
    10:00 +31°C° 0 mm 3 mps 656 mmHg 29%
    11:00 +33°C° 0 mm 3 mps 656 mmHg 26%
    12:00 +34°C° 0 mm 3 mps 655 mmHg 24%
    13:00 +36°C° 0 mm 3 mps 655 mmHg 21%
    14:00 +35°C° 0 mm 3 mps 654 mmHg 23%
    15:00 +35°C° 0 mm 3 mps 653 mmHg 25%
    16:00 +34°C° 0 mm 3 mps 652 mmHg 26%
    17:00 +31°C° 0 mm 3 mps 652 mmHg 32%
    18:00 +28°C° 0 mm 2 mps 652 mmHg 38%
    19:00 +26°C° 0 mm 2 mps 652 mmHg 43%
    20:00 +25°C° 0 mm 2 mps 652 mmHg 44%
    21:00 +25°C° 0 mm 2 mps 653 mmHg 45%
    22:00 +24°C° 0 mm 2 mps 653 mmHg 46%
    23:00 +23°C° 0 mm 2 mps 653 mmHg 53%

    19 February, Tuesday

    Time Temperature Precipitation Wind Pressure Humidity
    00:00 +21°C° 0 mm 2 mps 653 mmHg 60%
    01:00 +21°C° 0 mm 1 mps 652 mmHg 67%
    02:00 +21°C° 0 mm 1 mps 652 mmHg 66%
    03:00 +21°C° 0 mm 1 mps 652 mmHg 64%
    04:00 +22°C° 0 mm 1 mps 652 mmHg 63%
    05:00 +22°C° 0 mm 1 mps 652 mmHg 64%
    06:00 +22°C° 0 mm 1 mps 653 mmHg 65%
    07:00 +22°C° 0 mm 1 mps 653 mmHg 66%
    08:00 +25°C° 0 mm 1 mps 654 mmHg 57%
    09:00 +28°C° 0 mm 1 mps 654 mmHg 49%
    10:00 +31°C° 0 mm 1 mps 655 mmHg 40%
    11:00 +32°C° 0 mm 1 mps 655 mmHg 36%
    12:00 +34°C° 0 mm 2 mps 654 mmHg 32%
    13:00 +35°C° 0 mm 2 mps 654 mmHg 28%
    14:00 +34°C° 0 mm 2 mps 653 mmHg 31%
    15:00 +34°C° 0 mm 2 mps 653 mmHg 34%
    16:00 +32°C° 0 mm 2 mps 652 mmHg 37%
    17:00 +29°C° 0.1 mm 2 mps 652 mmHg 46%
    18:00 +27°C° 0.1 mm 2 mps 652 mmHg 54%
    19:00 +25°C° 0.1 mm 1 mps 652 mmHg 63%
    20:00 +24°C° 0.9 mm 2 mps 652 mmHg 72%
    21:00 +21°C° 0.9 mm 2 mps 652 mmHg 81%
    22:00 +19°C° 0.9 mm 2 mps 652 mmHg 90%
    23:00 +19°C° 0 mm 2 mps 652 mmHg 90%

    20 February, Wednesday

    Time Temperature Precipitation Wind Pressure Humidity
    00:00 +20°C° 0 mm 1 mps 652 mmHg 89%
    01:00 +20°C° 0 mm 1 mps 652 mmHg 89%
    02:00 +19°C° 0 mm 1 mps 651 mmHg 88%
    03:00 +19°C° 0 mm 1 mps 651 mmHg 87%
    04:00 +19°C° 0 mm 1 mps 651 mmHg 86%
    05:00 +19°C° 0.1 mm 1 mps 652 mmHg 85%
    06:00 +20°C° 0.1 mm 1 mps 652 mmHg 83%
    07:00 +20°C° 0.1 mm 1 mps 653 mmHg 82%
    08:00 +23°C° 0 mm 1 mps 654 mmHg 70%
    09:00 +26°C° 0 mm 2 mps 654 mmHg 59%
    10:00 +29°C° 0 mm 2 mps 655 mmHg 48%
    11:00 +30°C° 0 mm 2 mps 655 mmHg 43%
    12:00 +31°C° 0 mm 2 mps 655 mmHg 38%
    13:00 +34°C° 0 mm 3 mps 654 mmHg 34%
    14:00 +32°C° 0 mm 2 mps 654 mmHg 36%
    15:00 +31°C° 0 mm 2 mps 653 mmHg 39%
    16:00 +31°C° 0 mm 2 mps 652 mmHg 41%
    17:00 +29°C° 0 mm 1 mps 652 mmHg 46%
    18:00 +27°C° 0 mm 1 mps 652 mmHg 50%
    19:00 +23°C° 0 mm 0 mps 653 mmHg 54%
    20:00 +23°C° 0 mm 0 mps 653 mmHg 55%
    21:00 +24°C° 0 mm 1 mps 653 mmHg 57%
    22:00 +24°C° 0 mm 1 mps 654 mmHg 58%
    23:00 +23°C° 0 mm 1 mps 654 mmHg 61%

    21 February, Thursday

    Time Temperature Precipitation Wind Pressure Humidity
    00:00 +23°C° 0 mm 1 mps 653 mmHg 64%
    01:00 +22°C° 0 mm 1 mps 653 mmHg 67%
    02:00 +21°C° 0 mm 1 mps 653 mmHg 71%
    03:00 +21°C° 0 mm 1 mps 652 mmHg 75%
    04:00 +20°C° 0 mm 1 mps 652 mmHg 80%
    05:00 +21°C° 0 mm 1 mps 653 mmHg 79%
    06:00 +19°C° 0 mm 0 mps 653 mmHg 78%
    07:00 +20°C° 0 mm 0 mps 654 mmHg 78%
    08:00 +25°C° 0 mm 1 mps 655 mmHg 67%
    09:00 +28°C° 0 mm 1 mps 655 mmHg 57%
    10:00 +31°C° 0 mm 1 mps 656 mmHg 46%
    11:00 +32°C° 0 mm 2 mps 656 mmHg 42%
    12:00 +34°C° 0 mm 2 mps 655 mmHg 37%
    13:00 +34°C° 0 mm 3 mps 654 mmHg 33%
    14:00 +34°C° 0 mm 3 mps 654 mmHg 35%
    15:00 +32°C° 0 mm 2 mps 654 mmHg 38%
    16:00 +32°C° 0 mm 2 mps 653 mmHg 40%
    17:00 +30°C° 0 mm 1 mps 653 mmHg 45%
    18:00 +28°C° 0 mm 1 mps 653 mmHg 50%
    19:00 +26°C° 0 mm 1 mps 654 mmHg 55%
    20:00 +25°C° 0 mm 1 mps 654 mmHg 59%
    21:00 +24°C° 0 mm 1 mps 654 mmHg 63%
    22:00 +23°C° 0 mm 1 mps 654 mmHg 67%
    23:00 +23°C° 0 mm 2 mps 654 mmHg 72%
    Show more